TimeCDT,TemperatureF,Dew PointF,Humidity,Sea Level PressureIn,VisibilityMPH,Wind Direction,Wind SpeedMPH,Gust SpeedMPH,PrecipitationIn,Events,Conditions,WindDirDegrees,DateUTC
12:53 AM,46.0,42.1,86,29.52,10.0,SSW,11.5,-,0.00,Rain,Light Rain,210,2012-10-19 05:53:00
1:53 AM,46.0,42.1,86,29.50,10.0,SSW,17.3,-,0.02,Rain,Light Rain,200,2012-10-19 06:53:00
2:25 AM,46.4,42.8,87,29.49,10.0,SSW,18.4,23.0,0.01,Rain,Light Rain,200,2012-10-19 07:25:00
2:53 AM,46.0,43.0,89,29.48,10.0,SSW,18.4,-,0.01,Rain,Light Rain,200,2012-10-19 07:53:00
3:34 AM,46.4,42.8,87,29.48,7.0,SSW,16.1,-,0.01,Rain,Light Rain,200,2012-10-19 08:34:00
3:41 AM,46.4,42.8,87,29.48,6.0,SSW,18.4,-,0.01,Rain,Light Rain,200,2012-10-19 08:41:00
3:53 AM,46.0,44.1,93,29.48,5.0,SSW,17.3,-,0.02,Rain,Light Rain,200,2012-10-19 08:53:00
4:53 AM,46.0,45.0,96,29.48,4.0,SW,17.3,-,0.01,,Overcast,220,2012-10-19 09:53:00
5:53 AM,46.0,45.0,96,29.49,2.5,SW,16.1,-,N/A,,Overcast,220,2012-10-19 10:53:00
6:11 AM,46.4,44.6,93,29.49,3.0,SW,16.1,-,0.00,,Overcast,230,2012-10-19 11:11:00
6:53 AM,46.0,45.0,96,29.50,6.0,SW,18.4,26.5,0.00,,Overcast,230,2012-10-19 11:53:00
7:53 AM,46.0,44.1,93,29.51,8.0,SW,16.1,-,0.02,Rain,Light Rain,230,2012-10-19 12:53:00
8:04 AM,46.4,44.6,93,29.51,10.0,SW,15.0,-,0.00,Rain,Light Rain,230,2012-10-19 13:04:00
8:34 AM,46.4,44.6,93,29.51,2.0,WSW,15.0,21.9,0.00,Rain,Light Rain,240,2012-10-19 13:34:00
8:53 AM,46.0,45.0,96,29.52,2.0,SW,12.7,-,0.01,Rain,Light Rain,230,2012-10-19 13:53:00
9:26 AM,46.4,44.6,93,29.52,4.0,WSW,17.3,-,0.01,,Overcast,250,2012-10-19 14:26:00
9:28 AM,46.4,44.6,93,29.52,4.0,WSW,16.1,-,0.01,,Overcast,250,2012-10-19 14:28:00
9:53 AM,46.9,44.1,90,29.53,8.0,West,17.3,-,0.01,Rain,Light Rain,270,2012-10-19 14:53:00
10:22 AM,46.4,44.6,93,29.53,10.0,West,17.3,-,0.00,,Overcast,260,2012-10-19 15:22:00
10:37 AM,48.2,44.6,87,29.54,10.0,West,15.0,-,0.00,,Overcast,260,2012-10-19 15:37:00
10:44 AM,48.2,44.6,87,29.54,10.0,WSW,17.3,-,0.00,,Overcast,250,2012-10-19 15:44:00
10:53 AM,48.0,45.0,89,29.55,10.0,WSW,18.4,-,0.00,,Overcast,250,2012-10-19 15:53:00
11:45 AM,48.2,44.6,87,29.55,3.0,West,17.3,-,0.00,Rain,Light Rain,270,2012-10-19 16:45:00
11:53 AM,48.0,45.0,89,29.56,3.0,West,16.1,-,0.00,,Overcast,260,2012-10-19 16:53:00
12:34 PM,48.2,46.4,93,29.56,1.8,West,16.1,-,0.01,Rain,Light Rain,260,2012-10-19 17:34:00
12:39 PM,46.4,46.4,100,29.56,2.0,West,17.3,-,0.01,Rain,Light Rain,260,2012-10-19 17:39:00
12:49 PM,48.2,46.4,93,29.56,10.0,West,18.4,24.2,0.01,,Overcast,270,2012-10-19 17:49:00
12:53 PM,48.9,46.0,90,29.56,10.0,West,17.3,24.2,0.01,,Overcast,260,2012-10-19 17:53:00
1:00 PM,48.2,46.4,93,29.56,10.0,West,17.3,-,N/A,,Overcast,270,2012-10-19 18:00:00
1:07 PM,48.2,46.4,93,29.56,10.0,West,17.3,-,N/A,,Overcast,260,2012-10-19 18:07:00
1:23 PM,48.2,44.6,87,29.56,10.0,West,16.1,-,N/A,,Overcast,260,2012-10-19 18:23:00
1:53 PM,48.9,45.0,86,29.58,10.0,West,16.1,-,0.00,,Overcast,260,2012-10-19 18:53:00
2:53 PM,48.0,44.1,86,29.60,10.0,West,15.0,-,0.00,,Overcast,270,2012-10-19 19:53:00
3:02 PM,48.2,44.6,87,29.59,10.0,West,17.3,-,N/A,,Overcast,260,2012-10-19 20:02:00
3:38 PM,48.2,44.6,87,29.61,7.0,West,20.7,25.3,0.01,Rain,Light Rain,270,2012-10-19 20:38:00
3:53 PM,48.9,45.0,86,29.62,10.0,West,17.3,-,0.01,Rain,Light Rain,270,2012-10-19 20:53:00
4:12 PM,48.2,44.6,87,29.61,10.0,West,16.1,-,0.00,,Overcast,270,2012-10-19 21:12:00
4:53 PM,50.0,45.0,83,29.63,9.0,West,13.8,-,0.00,Rain,Light Rain,270,2012-10-19 21:53:00
5:53 PM,48.9,45.0,86,29.65,10.0,West,9.2,-,0.00,,Overcast,270,2012-10-19 22:53:00
6:53 PM,48.0,44.1,86,29.68,10.0,WSW,9.2,-,N/A,,Overcast,250,2012-10-19 23:53:00
7:53 PM,48.0,44.1,86,29.69,10.0,WSW,10.4,-,N/A,,Overcast,250,2012-10-20 00:53:00
9:53 PM,48.0,46.0,93,29.71,5.0,West,11.5,-,0.02,Rain,Rain,260,2012-10-20 02:53:00
10:26 PM,48.2,46.4,93,29.70,2.5,West,10.4,-,0.12,Rain,Heavy Rain,270,2012-10-20 03:26:00
10:32 PM,48.2,46.4,93,29.70,3.0,WNW,8.1,-,0.13,Rain,Rain,290,2012-10-20 03:32:00
10:45 PM,48.2,46.4,93,29.70,2.5,WNW,8.1,-,0.20,Rain,Heavy Rain,290,2012-10-20 03:45:00
10:53 PM,48.0,46.0,93,29.71,2.5,WNW,8.1,-,0.24,Rain,Heavy Rain,300,2012-10-20 03:53:00
11:09 PM,48.2,46.4,93,29.70,2.5,WNW,9.2,-,0.15,Rain,Heavy Rain,290,2012-10-20 04:09:00
11:15 PM,48.2,46.4,93,29.70,3.0,WNW,10.4,-,0.17,Rain,Rain,290,2012-10-20 04:15:00
11:31 PM,48.2,46.4,93,29.70,10.0,West,6.9,-,0.18,Rain,Light Rain,260,2012-10-20 04:31:00
11:39 PM,48.2,46.4,93,29.70,10.0,West,8.1,-,0.18,,Overcast,260,2012-10-20 04:39:00
11:53 PM,48.0,46.0,93,29.71,6.0,West,13.8,-,0.18,Rain,Light Rain,260,2012-10-20 04:53:00